Location: Bord�res
(43.2000°N, 0.2167°W)
Time: 14:26:36
(UTC+00:00)

Cosmos 2366 rocket - Pass Details

Date: 03 March 2021
Orbit: 954 x 998 km, 82.9° (Epoch: 20 April)

Event Time Altitude Azimuth Distance (km) Brightness Sun altitude
Rises 20:04:28 0° 191° (S) 3,676 7.0 -24.6°
Reaches altitude 10° 20:06:58 10° 193° (SSW) 2,737 6.3 -25.1°
Maximum altitude 20:13:15 75° 279° (W) 1,031 4.1 -26.2°
Drops below altitude 10° 20:19:38 10° 5° (N) 2,774 6.5 -27.3°
Sets 20:22:12 0° 7° (N) 3,729 7.2 -27.7°
